Year,Month,Day,Hour,Minute,Value (Times are PST for temperature in C)
2019,04,01,10,45,15.70
2019,04,01,10,46,15.70
2019,04,01,10,47,15.70
2019,04,01,10,48,15.80
2019,04,01,10,49,15.80
2019,04,01,10,50,15.80
2019,04,01,10,51,15.90
2019,04,01,10,52,15.90
2019,04,01,10,53,15.90
2019,04,01,10,54,15.90
2019,04,01,10,55,16.00
2019,04,01,10,56,16.00
2019,04,01,10,57,16.10
2019,04,01,10,58,16.10
2019,04,01,10,59,16.20
2019,04,01,11,00,16.20
2019,04,01,11,01,16.20
2019,04,01,11,02,16.20
2019,04,01,11,03,16.20
2019,04,01,11,04,16.20
2019,04,01,11,05,16.10
2019,04,01,11,06,16.10
2019,04,01,11,07,16.10
2019,04,01,11,08,16.10
2019,04,01,11,09,16.10
2019,04,01,11,10,16.10
2019,04,01,11,11,16.10
2019,04,01,11,12,16.20
2019,04,01,11,13,16.20
2019,04,01,11,14,16.20
2019,04,01,11,15,16.20
2019,04,01,11,16,16.30
2019,04,01,11,17,16.40
2019,04,01,11,18,16.50
2019,04,01,11,19,16.60
2019,04,01,11,20,16.70
2019,04,01,11,21,16.70
2019,04,01,11,22,16.70
2019,04,01,11,23,16.80
2019,04,01,11,24,16.80
2019,04,01,11,25,16.80
2019,04,01,11,26,16.90
2019,04,01,11,27,16.90
2019,04,01,11,28,16.90
2019,04,01,11,29,17.00
2019,04,01,11,30,17.00
2019,04,01,11,31,17.10
2019,04,01,11,32,17.10
2019,04,01,11,33,17.20
2019,04,01,11,34,17.20
2019,04,01,11,35,17.20
2019,04,01,11,36,17.20
2019,04,01,11,37,17.20
2019,04,01,11,38,17.20
2019,04,01,11,39,17.10
2019,04,01,11,40,17.10
2019,04,01,11,41,17.10
2019,04,01,11,42,17.10
2019,04,01,11,43,17.20
2019,04,01,11,44,17.30
2019,04,01,11,45,17.30
2019,04,01,11,46,17.40
2019,04,01,11,47,17.40
2019,04,01,11,48,17.50
2019,04,01,11,49,17.50
2019,04,01,11,50,17.50
2019,04,01,11,51,17.50
2019,04,01,11,52,17.50
2019,04,01,11,53,17.70
2019,04,01,11,54,17.70
2019,04,01,11,55,17.70
2019,04,01,11,56,17.70
2019,04,01,11,57,17.70
2019,04,01,11,58,17.70
2019,04,01,11,59,17.70
2019,04,01,12,00,17.70
2019,04,01,12,01,17.70
2019,04,01,12,02,17.70
2019,04,01,12,03,17.70
2019,04,01,12,04,17.70
2019,04,01,12,05,17.80
2019,04,01,12,06,17.80
2019,04,01,12,07,17.80
2019,04,01,12,08,17.90
2019,04,01,12,09,17.90
2019,04,01,12,10,17.90
2019,04,01,12,11,18.00
2019,04,01,12,12,18.00
2019,04,01,12,13,18.00
2019,04,01,12,14,18.00
2019,04,01,12,15,18.10
2019,04,01,12,16,18.10
2019,04,01,12,17,18.10
2019,04,01,12,18,18.20
2019,04,01,12,19,18.20
2019,04,01,12,20,18.30
2019,04,01,12,21,18.30
2019,04,01,12,22,18.30
2019,04,01,12,23,18.30
2019,04,01,12,24,18.10
2019,04,01,12,25,18.00
2019,04,01,12,26,17.90
2019,04,01,12,27,17.90
2019,04,01,12,28,17.90
2019,04,01,12,29,17.90
2019,04,01,12,30,17.80
2019,04,01,12,31,17.80
2019,04,01,12,32,17.80
2019,04,01,12,33,17.90
2019,04,01,12,34,17.90
2019,04,01,12,35,17.90
2019,04,01,12,36,17.90
2019,04,01,12,37,17.90
2019,04,01,12,38,17.80
2019,04,01,12,39,17.80
2019,04,01,12,40,17.80
2019,04,01,12,41,17.80
2019,04,01,12,42,17.80
2019,04,01,12,43,17.80
2019,04,01,12,44,17.80
2019,04,01,12,45,17.80
2019,04,01,12,46,17.80
2019,04,01,12,47,17.80
2019,04,01,12,48,17.80
2019,04,01,12,49,17.80
2019,04,01,12,50,17.80
2019,04,01,12,51,17.80
2019,04,01,12,52,17.90
2019,04,01,12,53,17.90
2019,04,01,12,54,17.90
2019,04,01,12,55,17.90
2019,04,01,12,56,17.90
2019,04,01,12,57,17.90
2019,04,01,12,58,17.90
2019,04,01,12,59,17.80
2019,04,01,13,00,17.80
2019,04,01,13,01,17.80
2019,04,01,13,02,17.80
2019,04,01,13,03,17.70
2019,04,01,13,04,17.70
2019,04,01,13,05,17.80
2019,04,01,13,06,17.80
2019,04,01,13,07,17.80
2019,04,01,13,08,17.90
2019,04,01,13,09,18.00
2019,04,01,13,10,18.00
2019,04,01,13,11,18.00
2019,04,01,13,12,18.00
2019,04,01,13,13,18.00
2019,04,01,13,14,18.00
2019,04,01,13,15,18.10
2019,04,01,13,16,18.10
2019,04,01,13,17,18.10
2019,04,01,13,18,18.10
2019,04,01,13,19,18.10
2019,04,01,13,20,18.10
2019,04,01,13,21,18.10
2019,04,01,13,22,18.10
2019,04,01,13,23,18.10
2019,04,01,13,24,18.10
2019,04,01,13,25,18.10
2019,04,01,13,26,18.00
2019,04,01,13,27,18.00
2019,04,01,13,28,17.90
2019,04,01,13,29,17.90
2019,04,01,13,30,17.90
2019,04,01,13,31,17.90
2019,04,01,13,32,17.90
2019,04,01,13,33,17.80
2019,04,01,13,34,17.80
2019,04,01,13,35,17.80
2019,04,01,13,36,17.80
2019,04,01,13,37,17.80
2019,04,01,13,38,17.80
2019,04,01,13,39,17.80
2019,04,01,13,40,17.80
2019,04,01,13,41,17.80
2019,04,01,13,42,17.90
2019,04,01,13,43,17.90
2019,04,01,13,44,17.90
2019,04,01,13,45,17.90
2019,04,01,13,46,18.00
2019,04,01,13,47,18.00
2019,04,01,13,48,18.00
2019,04,01,13,49,18.10
2019,04,01,13,50,18.00
2019,04,01,13,51,17.90
2019,04,01,13,52,17.80
2019,04,01,13,53,17.90
2019,04,01,13,54,18.00
2019,04,01,13,55,18.00
2019,04,01,13,56,18.10
2019,04,01,13,57,18.00
2019,04,01,13,58,18.00
2019,04,01,13,59,18.00
2019,04,01,14,00,18.00
2019,04,01,14,01,18.00
2019,04,01,14,02,17.90
2019,04,01,14,03,17.80
2019,04,01,14,04,17.70
2019,04,01,14,05,17.70
2019,04,01,14,06,17.70
2019,04,01,14,07,17.80
2019,04,01,14,08,17.90
2019,04,01,14,09,18.00
2019,04,01,14,10,18.10
2019,04,01,14,11,18.20
2019,04,01,14,12,18.20
2019,04,01,14,13,18.20
2019,04,01,14,14,18.10
2019,04,01,14,15,18.00
2019,04,01,14,16,17.90
2019,04,01,14,17,17.90
2019,04,01,14,18,17.80
2019,04,01,14,19,17.80
2019,04,01,14,20,17.80
2019,04,01,14,21,17.80
2019,04,01,14,22,17.80
2019,04,01,14,23,17.90
2019,04,01,14,24,18.00
2019,04,01,14,25,18.10
2019,04,01,14,26,18.10
2019,04,01,14,27,18.10
2019,04,01,14,28,18.10
2019,04,01,14,29,18.10
2019,04,01,14,30,18.20
2019,04,01,14,31,18.20
2019,04,01,14,32,18.20
2019,04,01,14,33,18.20
2019,04,01,14,34,18.20
2019,04,01,14,35,18.30
2019,04,01,14,36,18.30
2019,04,01,14,37,18.20
2019,04,01,14,38,18.10
2019,04,01,14,39,18.10
2019,04,01,14,40,18.00
2019,04,01,14,41,18.00
2019,04,01,14,42,18.00
2019,04,01,14,43,18.00
2019,04,01,14,44,17.90
2019,04,01,14,45,17.80
2019,04,01,14,46,17.70
2019,04,01,14,47,17.70
2019,04,01,14,48,17.60
2019,04,01,14,49,17.50
2019,04,01,14,50,17.40
2019,04,01,14,51,17.30
2019,04,01,14,52,17.30
2019,04,01,14,53,17.20
2019,04,01,14,54,17.10
2019,04,01,14,55,17.10
2019,04,01,14,56,17.10
2019,04,01,14,57,17.10
2019,04,01,14,58,17.20
2019,04,01,14,59,17.20
2019,04,01,15,00,17.20
2019,04,01,15,01,17.20
2019,04,01,15,02,17.20
2019,04,01,15,03,17.10
2019,04,01,15,04,17.00
2019,04,01,15,05,17.00
2019,04,01,15,06,17.00
2019,04,01,15,07,17.00
2019,04,01,15,08,17.10
2019,04,01,15,09,17.10
2019,04,01,15,10,17.10
2019,04,01,15,11,17.10
2019,04,01,15,12,17.00
2019,04,01,15,13,17.00
2019,04,01,15,14,17.00
2019,04,01,15,15,17.00
2019,04,01,15,16,17.00
2019,04,01,15,17,17.00
2019,04,01,15,18,17.00
2019,04,01,15,19,17.00
2019,04,01,15,20,16.90
2019,04,01,15,21,16.90
2019,04,01,15,22,16.90
2019,04,01,15,23,16.90
2019,04,01,15,24,16.90
2019,04,01,15,25,16.90
2019,04,01,15,26,16.90
2019,04,01,15,27,16.80
2019,04,01,15,28,16.80
2019,04,01,15,29,16.70
2019,04,01,15,30,16.70
2019,04,01,15,31,16.70
2019,04,01,15,32,16.70
2019,04,01,15,33,16.60
2019,04,01,15,34,16.60
2019,04,01,15,35,16.60
2019,04,01,15,36,16.70
2019,04,01,15,37,16.70
2019,04,01,15,38,16.70
2019,04,01,15,39,16.70
2019,04,01,15,40,16.70
2019,04,01,15,41,16.70
2019,04,01,15,42,16.70
2019,04,01,15,43,16.70
2019,04,01,15,44,16.80
2019,04,01,15,45,16.80
2019,04,01,15,46,16.80
2019,04,01,15,47,16.70
2019,04,01,15,48,16.80
2019,04,01,15,49,16.80
2019,04,01,15,50,16.90
2019,04,01,15,51,17.00
2019,04,01,15,52,17.00
2019,04,01,15,53,17.10
2019,04,01,15,54,17.20
2019,04,01,15,55,17.30
2019,04,01,15,56,17.30
2019,04,01,15,57,17.40
2019,04,01,15,58,17.40
2019,04,01,15,59,17.40
2019,04,01,16,00,17.50
2019,04,01,16,01,17.60
2019,04,01,16,02,17.60
2019,04,01,16,03,17.70
2019,04,01,16,04,17.80
2019,04,01,16,05,17.80
2019,04,01,16,06,17.90
2019,04,01,16,07,18.00
2019,04,01,16,08,18.00
2019,04,01,16,09,18.10
2019,04,01,16,10,18.10
2019,04,01,16,11,18.10
2019,04,01,16,12,18.10
2019,04,01,16,13,18.20
2019,04,01,16,14,18.20
2019,04,01,16,15,18.30
2019,04,01,16,16,18.30
2019,04,01,16,17,18.30
2019,04,01,16,18,18.40
2019,04,01,16,19,18.40
2019,04,01,16,20,18.40
2019,04,01,16,21,18.40
2019,04,01,16,22,18.40
2019,04,01,16,23,18.40
2019,04,01,16,24,18.40
2019,04,01,16,25,18.40
2019,04,01,16,26,18.40
2019,04,01,16,27,18.40
2019,04,01,16,28,18.40
2019,04,01,16,29,18.50
2019,04,01,16,30,18.50
2019,04,01,16,31,18.50
2019,04,01,16,32,18.60
2019,04,01,16,33,18.60
2019,04,01,16,34,18.60
2019,04,01,16,35,18.50
2019,04,01,16,36,18.50
2019,04,01,16,37,18.50
2019,04,01,16,38,18.50
2019,04,01,16,39,18.50
2019,04,01,16,40,18.60
2019,04,01,16,41,18.60
2019,04,01,16,42,18.50
2019,04,01,16,43,18.50
2019,04,01,16,44,18.40
2019,04,01,16,45,18.40
2019,04,01,16,46,18.30
2019,04,01,16,47,18.30
2019,04,01,16,48,18.40
2019,04,01,16,49,18.40
2019,04,01,16,50,18.40
2019,04,01,16,51,18.40
2019,04,01,16,52,18.40
2019,04,01,16,53,18.40
2019,04,01,16,54,18.30
2019,04,01,16,55,18.20
2019,04,01,16,56,18.20
2019,04,01,16,57,18.20
2019,04,01,16,58,18.10
2019,04,01,16,59,18.10
2019,04,01,17,00,18.10
2019,04,01,17,01,18.10
2019,04,01,17,02,18.10
2019,04,01,17,03,18.10
2019,04,01,17,04,18.10
2019,04,01,17,05,18.10
2019,04,01,17,06,18.00
2019,04,01,17,07,18.00
2019,04,01,17,08,17.90
2019,04,01,17,09,18.00
2019,04,01,17,10,18.00
2019,04,01,17,11,18.00
2019,04,01,17,12,18.00
2019,04,01,17,13,18.10
2019,04,01,17,14,18.10
2019,04,01,17,15,18.10
2019,04,01,17,16,18.10
2019,04,01,17,17,18.10
2019,04,01,17,18,18.10
2019,04,01,17,19,18.10
2019,04,01,17,20,18.10
2019,04,01,17,21,18.10
2019,04,01,17,22,18.00
2019,04,01,17,23,18.00
2019,04,01,17,24,17.90
2019,04,01,17,25,17.90
2019,04,01,17,26,17.90
2019,04,01,17,27,17.90
2019,04,01,17,28,17.90
2019,04,01,17,29,17.90
2019,04,01,17,30,18.00
2019,04,01,17,31,18.00
2019,04,01,17,32,18.10
2019,04,01,17,33,18.10
2019,04,01,17,34,18.10
2019,04,01,17,35,18.10
2019,04,01,17,36,18.10
2019,04,01,17,37,18.10
2019,04,01,17,38,18.20
2019,04,01,17,39,18.20
2019,04,01,17,40,18.30
2019,04,01,17,41,18.30
2019,04,01,17,42,18.40
2019,04,01,17,43,18.40
2019,04,01,17,44,18.40
2019,04,01,17,45,18.30
2019,04,01,17,46,18.30
2019,04,01,17,47,18.30
2019,04,01,17,48,18.30
2019,04,01,17,49,18.20
2019,04,01,17,50,18.20
2019,04,01,17,51,18.20
2019,04,01,17,52,18.20
2019,04,01,17,53,18.20
2019,04,01,17,54,18.20
2019,04,01,17,55,18.20
2019,04,01,17,56,18.30
2019,04,01,17,57,18.30
2019,04,01,17,58,18.30
2019,04,01,17,59,18.30
2019,04,01,18,00,18.30
2019,04,01,18,01,18.20
2019,04,01,18,02,18.10
2019,04,01,18,03,18.00
2019,04,01,18,04,17.90
2019,04,01,18,05,17.80
2019,04,01,18,06,17.70
2019,04,01,18,07,17.60
2019,04,01,18,08,17.60
2019,04,01,18,09,17.50
2019,04,01,18,10,17.50
2019,04,01,18,11,17.50
2019,04,01,18,12,17.50
2019,04,01,18,13,17.50
2019,04,01,18,14,17.50
2019,04,01,18,15,17.50
2019,04,01,18,16,17.50
2019,04,01,18,17,17.40
2019,04,01,18,18,17.40
2019,04,01,18,19,17.40
2019,04,01,18,20,17.40
2019,04,01,18,21,17.30
2019,04,01,18,22,17.30
2019,04,01,18,23,17.30
2019,04,01,18,24,17.30
2019,04,01,18,25,17.20
2019,04,01,18,26,17.20
2019,04,01,18,27,17.20
2019,04,01,18,28,17.20
2019,04,01,18,29,17.20
2019,04,01,18,30,17.20
2019,04,01,18,31,17.10
2019,04,01,18,32,17.10
2019,04,01,18,33,17.10
2019,04,01,18,34,17.10
2019,04,01,18,35,17.10
2019,04,01,18,36,17.10
2019,04,01,18,37,17.10
2019,04,01,18,38,17.00
2019,04,01,18,39,16.90
2019,04,01,18,40,16.90
2019,04,01,18,41,16.80
2019,04,01,18,42,16.80
2019,04,01,18,43,16.80
2019,04,01,18,44,16.70
2019,04,01,18,45,16.70
2019,04,01,18,46,16.70
2019,04,01,18,47,16.70
2019,04,01,18,48,16.60
2019,04,01,18,49,16.60
2019,04,01,18,50,16.50
2019,04,01,18,51,16.50
2019,04,01,18,52,16.40
2019,04,01,18,53,16.40
2019,04,01,18,54,16.30
2019,04,01,18,55,16.30
2019,04,01,18,56,16.30
2019,04,01,18,57,16.20
2019,04,01,18,58,16.20
2019,04,01,18,59,16.20
2019,04,01,19,00,16.10
2019,04,01,19,01,16.10
2019,04,01,19,02,16.00
2019,04,01,19,03,15.90
2019,04,01,19,04,15.90
2019,04,01,19,05,15.80
2019,04,01,19,06,15.80
2019,04,01,19,07,15.70
2019,04,01,19,08,15.70
2019,04,01,19,09,15.60
2019,04,01,19,10,15.50
2019,04,01,19,11,15.40
2019,04,01,19,12,15.40
2019,04,01,19,13,15.30
2019,04,01,19,14,15.30
2019,04,01,19,15,15.30
2019,04,01,19,16,15.20
2019,04,01,19,17,15.20
2019,04,01,19,18,15.10
2019,04,01,19,19,15.10
2019,04,01,19,20,15.00
2019,04,01,19,21,15.00
2019,04,01,19,22,15.00
2019,04,01,19,23,14.90
2019,04,01,19,24,14.90
2019,04,01,19,25,14.90
2019,04,01,19,26,14.90
2019,04,01,19,27,14.90
2019,04,01,19,28,14.90
2019,04,01,19,29,14.90
2019,04,01,19,30,14.90
2019,04,01,19,31,14.90
2019,04,01,19,32,14.80
2019,04,01,19,33,14.80
2019,04,01,19,34,14.70
2019,04,01,19,35,14.60
2019,04,01,19,36,14.50
2019,04,01,19,37,14.50
2019,04,01,19,38,14.40
2019,04,01,19,39,14.40
2019,04,01,19,40,14.30
2019,04,01,19,41,14.20
2019,04,01,19,42,14.10
2019,04,01,19,43,14.00
2019,04,01,19,44,13.90
2019,04,01,19,45,13.80
2019,04,01,19,46,13.80
2019,04,01,19,47,13.70
2019,04,01,19,48,13.70
2019,04,01,19,49,13.60
2019,04,01,19,50,13.50
2019,04,01,19,51,13.50
2019,04,01,19,52,13.40
2019,04,01,19,53,13.40
2019,04,01,19,54,13.30
2019,04,01,19,55,13.30
2019,04,01,19,56,13.20
2019,04,01,19,57,13.20
2019,04,01,19,58,13.10
2019,04,01,19,59,13.00
2019,04,01,20,00,12.90
2019,04,01,20,01,12.90
2019,04,01,20,02,12.90
2019,04,01,20,03,12.90
2019,04,01,20,04,12.90
2019,04,01,20,05,12.90
2019,04,01,20,06,12.90
2019,04,01,20,07,12.90
2019,04,01,20,08,12.90
2019,04,01,20,09,12.90
2019,04,01,20,10,12.90
